KK7NDB Weather Reports


time (UTC)temp
F
wind
direction
speed
knots
gust
knots
rain 1hr
in
rain 24hr
in
rain mn
in
humidity
%
barometer
mb
20260508213811 73 234 2.6 4.3 0.00 0.00 0.00 24 1005.8
20260508213308 73 234 2.6 4.3 0.00 0.00 0.00 24 1005.9
20260508212804 73 234 2.6 4.3 0.00 0.00 0.00 24 1005.8
20260508212300 73 234 2.6 4.3 0.00 0.00 0.00 24 1005.9
20260508211756 73 234 2.6 4.3 0.00 0.00 0.00 24 1005.8
20260508211252 73 234 2.6 4.3 0.00 0.00 0.00 24 1006.0
20260508210750 73 234 2.6 10.4 0.00 0.00 0.00 24 1006.0
20260508210246 74 244 5.2 7.8 0.00 0.00 0.00 22 1005.8
20260508205743 74 236 6.1 9.6 0.00 0.00 0.00 22 1005.9
20260508205240 74 237 7.0 9.6 0.00 0.00 0.00 22 1005.8
20260508204736 74 237 7.0 9.6 0.00 0.00 0.00 22 1006.0
20260508204233 73 249 3.5 3.5 0.00 0.00 0.00 23 1005.9
20260508203729 72 268 6.1 9.6 0.00 0.00 0.00 24 1006.0
20260508203225 71 221 5.2 5.2 0.00 0.00 0.00 25 1006.0
20260508202716 71 52 0.0 7.0 0.00 0.00 0.00 24 1006.1
20260508202213 71 258 4.3 7.0 0.00 0.00 0.00 22 1006.0
20260508201710 71 258 4.3 7.8 0.00 0.00 0.00 22 1006.0
20260508201207 72 260 4.3 5.2 0.00 0.00 0.00 23 1006.0
20260508200704 71 241 1.7 7.8 0.00 0.00 0.00 26 1006.2
20260508200200 71 256 9.6 10.4 0.00 0.00 0.00 22 1006.1
20260508195656 73 253 1.7 2.6 0.00 0.00 0.00 24 1006.3
20260508195153 73 258 3.5 7.0 0.00 0.00 0.00 23 1006.1
20260508194649 72 250 5.2 5.2 0.00 0.00 0.00 26 1006.1
20260508194146 72 250 5.2 5.2 0.00 0.00 0.00 26 1006.2
20260508193643 71 216 5.2 7.0 0.00 0.00 0.00 24 1006.2
20260508193140 71 216 5.2 7.0 0.00 0.00 0.00 24 1006.2
20260508192636 71 216 5.2 8.7 0.00 0.00 0.00 24 1006.3
20260508192134 72 253 6.1 8.7 0.00 0.00 0.00 26 1006.1
20260508191630 72 244 4.3 4.3 0.00 0.00 0.00 26 1006.3
20260508191127 72 244 4.3 4.3 0.00 0.00 0.00 26 1006.2
20260508190624 72 244 4.3 4.3 0.00 0.00 0.00 26 1006.1
20260508190120 72 244 4.3 4.3 0.00 0.00 0.00 26 1006.1
20260508185617 71 251 5.2 6.1 0.00 0.00 0.00 28 1006.2
20260508185115 71 251 5.2 6.1 0.00 0.00 0.00 28 1006.1
20260508184612 71 242 3.5 6.1 0.00 0.00 0.00 25 1006.2
20260508184109 72 239 5.2 9.6 0.00 0.00 0.00 25 1006.2
20260508183605 72 207 1.7 6.1 0.00 0.00 0.00 26 1006.2
20260508183101 73 252 4.3 5.2 0.00 0.00 0.00 25 1006.3
20260508182558 71 217 0.0 5.2 0.00 0.00 0.00 28 1006.5
20260508182056 72 237 2.6 3.5 0.00 0.00 0.00 25 1006.6
20260508181555 72 193 0.0 1.7 0.00 0.00 0.00 28 1006.3
20260508181054 71 246 4.3 4.3 0.00 0.00 0.00 27 1006.3
20260508180550 71 246 4.3 4.3 0.00 0.00 0.00 27 1006.5
20260508180046 71 24 0.9 1.7 0.00 0.00 0.00 37 1006.5
20260508175543 71 24 0.9 1.7 0.00 0.00 0.00 37 1006.5
20260508175040 71 24 0.9 1.7 0.00 0.00 0.00 37 1006.6
20260508174538 71 24 0.9 1.7 0.00 0.00 0.00 37 1006.6
20260508174035 68 254 4.3 4.3 0.00 0.00 0.00 36 1006.6
20260508173531 68 254 4.3 4.3 0.00 0.00 0.00 36 1006.6
20260508173027 68 254 4.3 4.3 0.00 0.00 0.00 36 1006.6
20260508172525 65 269 0.0 2.6 0.00 0.00 0.00 38 1006.3
20260508172021 65 269 0.0 2.6 0.00 0.00 0.00 38 1006.6
20260508171518 65 269 0.0 2.6 0.00 0.00 0.00 38 1006.6
20260508171014 65 269 0.0 2.6 0.00 0.00 0.00 38 1006.7
20260508170512 65 269 0.0 2.6 0.00 0.00 0.00 38 1006.8
20260508170009 64 98 1.7 3.5 0.00 0.00 0.00 41 1006.8
20260508165506 64 98 1.7 3.5 0.00 0.00 0.00 41 1006.8
20260508165003 64 98 1.7 3.5 0.00 0.00 0.00 41 1006.9
20260508164459 0 0.0 0.0 0.00 0.00 0.00 1007.1
20260508163956 0 0.0 0.0 0.00 0.00 0.00 1006.7
20260508163454 0 0.0 0.0 0.00 0.00 0.00 1006.9
20260508162949 0 0.0 0.0 0.00 0.00 0.00 1006.7
20260508162447 0 0.0 0.0 0.00 0.00 0.00 1006.9
20260508161944 0 0.0 0.0 0.00 0.00 0.00 1006.9
20260508161441 55 111 3.5 3.5 0.00 0.00 0.00 51 1007.1
20260508160938 55 111 3.5 3.5 0.00 0.00 0.00 51 1007.2
20260508160437 55 111 3.5 3.5 0.00 0.00 0.00 51 1007.1
20260508155933 55 111 3.5 3.5 0.00 0.00 0.00 51 1007.1
20260508155430 55 111 3.5 3.5 0.00 0.00 0.00 51 1007.1
20260508154927 55 111 3.5 3.5 0.00 0.00 0.00 51 1007.2
20260508154425 55 111 3.5 3.5 0.00 0.00 0.00 51 1007.3
20260508153921 55 111 3.5 3.5 0.00 0.00 0.00 51 1007.2
20260508153418 55 111 3.5 3.5 0.00 0.00 0.00 51 1007.2
20260508152914 55 111 3.5 3.5 0.00 0.00 0.00 51 1007.2
20260508152411 55 111 3.5 3.5 0.00 0.00 0.00 51 1007.1
20260508151907 55 111 3.5 3.5 0.00 0.00 0.00 51 1007.2
20260508151404 55 124 1.7 1.7 0.00 0.00 0.00 52 1007.2
20260508150900 52 80 1.7 2.6 0.00 0.00 0.00 55 1007.2
20260508150357 52 80 1.7 2.6 0.00 0.00 0.00 55 1007.2
20260508145853 52 80 1.7 2.6 0.00 0.00 0.00 55 1007.3
20260508145349 52 80 1.7 2.6 0.00 0.00 0.00 55 1007.3
20260508144846 52 45 2.6 2.6 0.00 0.00 0.00 55 1007.3
20260508144345 54 22 0.0 3.5 0.00 0.00 0.00 55 1007.3
20260508143842 51 86 3.5 4.3 0.00 0.00 0.00 59 1007.3
20260508143339 51 86 3.5 4.3 0.00 0.00 0.00 59 1007.2
20260508142835 51 86 3.5 4.3 0.00 0.00 0.00 59 1007.3
20260508142332 51 87 3.5 3.5 0.00 0.00 0.00 58 1007.2
20260508141828 52 173 0.0 1.7 0.00 0.00 0.00 57 1007.2
20260508141326 53 76 1.7 1.7 0.00 0.00 0.00 57 1007.3
20260508140823 51 80 0.9 1.7 0.00 0.00 0.00 61 1007.3
20260508140320 49 92 3.5 3.5 0.00 0.00 0.00 65 1007.3
20260508135815 47 76 0.0 0.0 0.00 0.00 0.00 64 1007.2
20260508135312 49 224 0.9 1.7 0.00 0.00 0.00 63 1007.2
20260508134808 51 53 0.0 0.0 0.00 0.00 0.00 58 1007.3
20260508134305 50 65 1.7 2.6 0.00 0.00 0.00 63 1006.9
20260508133802 46 83 0.9 1.7 0.00 0.00 0.00 68 1007.1
20260508133300 45 81 0.9 1.7 0.00 0.00 0.00 68 1007.1
20260508132757 46 88 0.9 0.9 0.00 0.00 0.00 68 1006.9
20260508132254 46 88 0.9 0.9 0.00 0.00 0.00 68 1007.1
20260508131750 46 88 0.9 0.9 0.00 0.00 0.00 68 1006.9
20260508131246 46 88 0.9 0.9 0.00 0.00 0.00 68 1006.8
20260508130743 0 0.0 0.0 0.00 0.00 0.00 1006.7
20260508130241 0 0.0 0.0 0.00 0.00 0.00 1006.6
20260508125736 0 0.0 0.0 0.00 0.00 0.00 1006.9
20260508125232 0 0.0 0.0 0.00 0.00 0.00 1006.6
20260508124731 0 0.0 0.0 0.00 0.00 0.00 1006.5
20260508124228 0 0.0 0.0 0.00 0.00 0.00 1006.3
20260508123726 0 0.0 0.0 0.00 0.00 0.00 1006.5
20260508123224 0 0.0 0.0 0.00 0.00 0.00 1006.3
20260508122719 0 0.0 0.0 0.00 0.00 0.00 1006.3
20260508122216 0 0.0 0.0 0.00 0.00 0.00 1006.3
20260508121714 0 0.0 0.0 0.00 0.00 0.00 1006.1
20260508121213 0 0.0 0.0 0.00 0.00 0.00 1006.2
20260508120709 0 0.0 0.0 0.00 0.00 0.00 1006.1
20260508120207 0 0.0 0.0 0.00 0.00 0.00 1006.1
20260508115705 0 0.0 0.0 0.00 0.00 0.00 1006.0
20260508115202 0 0.0 0.0 0.00 0.00 0.00 1006.1
20260508114658 0 0.0 0.0 0.00 0.00 0.00 1006.0
20260508114155 0 0.0 0.0 0.00 0.00 0.00 1005.9
20260508113652 0 0.0 0.0 0.00 0.00 0.00 1006.0
20260508113150 0 0.0 0.0 0.00 0.00 0.00 1005.9
20260508112646 0 0.0 0.0 0.00 0.00 0.00 1005.8
20260508112143 0 0.0 0.0 0.00 0.00 0.00 1005.9
20260508111639 0 0.0 0.0 0.00 0.00 0.00 1005.6
20260508111137 0 0.0 0.0 0.00 0.00 0.00 1005.9
20260508110635 0 0.0 0.0 0.00 0.00 0.00 1005.9
20260508110131 0 0.0 0.0 0.00 0.00 0.00 1006.0
20260508105626 0 0.0 0.0 0.00 0.00 0.00 1006.0
20260508105123 0 0.0 0.0 0.00 0.00 0.00 1006.0
20260508104621 0 0.0 0.0 0.00 0.00 0.00 1005.6
20260508104117 0 0.0 0.0 0.00 0.00 0.00 1005.4
20260508103615 0 0.0 0.0 0.00 0.00 0.00 1005.6
20260508103112 0 0.0 0.0 0.00 0.00 0.00 1005.6
20260508102609 0 0.0 0.0 0.00 0.00 0.00 1005.6
20260508102107 0 0.0 0.0 0.00 0.00 0.00 1005.8
20260508101604 0 0.0 0.0 0.00 0.00 0.00 1005.8
20260508101101 0 0.0 0.0 0.00 0.00 0.00 1005.6
20260508100559 0 0.0 0.0 0.00 0.00 0.00 1005.4
20260508100056 0 0.0 0.0 0.00 0.00 0.00 1005.8
20260508095553 0 0.0 0.0 0.00 0.00 0.00 1005.4
20260508095050 0 0.0 0.0 0.00 0.00 0.00 1005.6
20260508094547 0 0.0 0.0 0.00 0.00 0.00 1005.5
20260508094044 0 0.0 0.0 0.00 0.00 0.00 1005.4
20260508093541 0 0.0 0.0 0.00 0.00 0.00 1005.8
20260508093039 0 0.0 0.0 0.00 0.00 0.00 1005.3
20260508092536 0 0.0 0.0 0.00 0.00 0.00 1005.3
20260508092035 0 0.0 0.0 0.00 0.00 0.00 1005.5
20260508091531 0 0.0 0.0 0.00 0.00 0.00 1005.4
20260508091028 45 89 1.7 2.6 0.00 0.00 0.00 66 1005.5
20260508090526 45 89 1.7 2.6 0.00 0.00 0.00 66 1005.4
20260508090022 45 89 1.7 2.6 0.00 0.00 0.00 66 1005.6
20260508085519 45 89 1.7 2.6 0.00 0.00 0.00 66 1005.4
20260508085016 45 89 1.7 2.6 0.00 0.00 0.00 66 1005.6
20260508084513 45 89 1.7 2.6 0.00 0.00 0.00 66 1005.6
20260508084010 45 89 1.7 2.6 0.00 0.00 0.00 66 1005.5
20260508083507 45 89 1.7 2.6 0.00 0.00 0.00 66 1005.6
20260508083004 45 89 1.7 2.6 0.00 0.00 0.00 66 1005.4
20260508082459 45 89 1.7 2.6 0.00 0.00 0.00 66 1005.5
20260508081957 45 89 1.7 2.6 0.00 0.00 0.00 66 1005.6
20260508081453 45 89 1.7 2.6 0.00 0.00 0.00 66 1005.4
20260508080944 45 91 1.7 1.7 0.00 0.00 0.00 66 1005.5
20260508080443 46 64 2.6 2.6 0.00 0.00 0.00 66 1005.5
20260508075939 46 212 0.0 0.0 0.00 0.00 0.00 66 1005.4
20260508075436 46 217 0.0 0.9 0.00 0.00 0.00 66 1005.5
20260508074934 46 112 1.7 1.7 0.00 0.00 0.00 66 1005.6
20260508074431 46 112 1.7 1.7 0.00 0.00 0.00 66 1005.4
20260508073928 46 65 1.7 3.5 0.00 0.00 0.00 66 1005.5
20260508073426 46 72 2.6 2.6 0.00 0.00 0.00 65 1005.3
20260508072922 46 72 0.9 1.7 0.00 0.00 0.00 64 1005.5
20260508072418 0 0.0 0.0 0.00 0.00 0.00 1005.5
20260508071916 0 0.0 0.0 0.00 0.00 0.00 1005.4
20260508071414 50 74 1.7 1.7 0.00 0.00 0.00 57 1005.8
20260508070911 50 74 1.7 1.7 0.00 0.00 0.00 57 1005.5
20260508070409 50 74 1.7 1.7 0.00 0.00 0.00 57 1005.5
20260508065907 50 74 1.7 1.7 0.00 0.00 0.00 57 1005.5
20260508065405 50 74 1.7 1.7 0.00 0.00 0.00 57 1005.5
20260508064903 50 74 1.7 1.7 0.00 0.00 0.00 57 1005.5
20260508064359 50 74 1.7 1.7 0.00 0.00 0.00 57 1005.6
20260508063857 50 74 1.7 1.7 0.00 0.00 0.00 57 1005.8
20260508063355 50 74 1.7 1.7 0.00 0.00 0.00 57 1005.4
20260508062851 50 74 1.7 1.7 0.00 0.00 0.00 57 1005.4
20260508062343 50 74 1.7 1.7 0.00 0.00 0.00 57 1005.2
20260508061840 50 74 1.7 1.7 0.00 0.00 0.00 57 1005.0
20260508061338 0 0.0 0.0 0.00 0.00 0.00 1005.0
20260508060834 51 42 1.7 2.6 0.00 0.00 0.00 56 1005.2
20260508060332 51 42 1.7 2.6 0.00 0.00 0.00 56 1005.2
20260508055826 51 42 1.7 2.6 0.00 0.00 0.00 56 1004.9
20260508055325 51 42 1.7 2.6 0.00 0.00 0.00 56 1005.0
20260508054821 51 42 1.7 2.6 0.00 0.00 0.00 56 1005.2
20260508054319 51 42 1.7 2.6 0.00 0.00 0.00 56 1005.2
20260508053815 51 42 1.7 2.6 0.00 0.00 0.00 56 1004.9
20260508053313 51 42 1.7 2.6 0.00 0.00 0.00 56 1005.0
20260508052810 51 42 1.7 2.6 0.00 0.00 0.00 56 1004.9
20260508052307 51 42 1.7 2.6 0.00 0.00 0.00 56 1004.8
20260508051803 51 42 1.7 2.6 0.00 0.00 0.00 56 1005.0
20260508051258 51 42 1.7 2.6 0.00 0.00 0.00 56 1004.9
20260508050755 50 35 3.5 3.5 0.00 0.00 0.00 57 1004.8
20260508050253 50 35 3.5 3.5 0.00 0.00 0.00 57 1004.7
20260508045748 54 85 0.9 1.7 0.00 0.00 0.00 47 1004.8
20260508045246 54 85 0.9 1.7 0.00 0.00 0.00 47 1004.9
20260508044743 54 85 0.9 1.7 0.00 0.00 0.00 47 1005.2
20260508044240 54 85 0.9 1.7 0.00 0.00 0.00 47 1005.0
20260508043736 54 85 0.9 1.7 0.00 0.00 0.00 47 1004.7
20260508043233 54 65 0.9 2.6 0.00 0.00 0.00 51 1004.8
20260508042730 54 65 0.9 2.6 0.00 0.00 0.00 51 1004.8
20260508042227 54 65 0.9 2.6 0.00 0.00 0.00 51 1004.8
20260508041724 54 65 0.9 2.6 0.00 0.00 0.00 51 1004.8
20260508041220 54 65 0.9 2.6 0.00 0.00 0.00 51 1004.9
20260508040717 54 84 0.9 1.7 0.00 0.00 0.00 50 1004.6
20260508040214 57 111 1.7 1.7 0.00 0.00 0.00 46 1004.8
20260508035712 57 111 1.7 1.7 0.00 0.00 0.00 46 1004.7
20260508035209 57 111 1.7 1.7 0.00 0.00 0.00 46 1004.8
20260508034705 57 87 0.0 0.0 0.00 0.00 0.00 44 1004.3
20260508034203 58 257 0.9 2.6 0.00 0.00 0.00 41 1004.6
20260508033700 59 89 0.0 1.7 0.00 0.00 0.00 37 1004.4
20260508033158 59 69 0.0 1.7 0.00 0.00 0.00 37 1004.3
20260508032655 59 69 0.0 2.6 0.00 0.00 0.00 40 1004.3
20260508032152 59 163 0.0 1.7 0.00 0.00 0.00 38 1004.3
20260508031649 59 74 2.6 4.3 0.00 0.00 0.00 40 1004.3
20260508031145 60 61 0.0 0.0 0.00 0.00 0.00 39 1004.3
20260508030642 61 344 0.0 0.9 0.00 0.00 0.00 35 1004.3
20260508030140 61 38 3.5 4.3 0.00 0.00 0.00 35 1004.1
20260508025635 61 29 0.9 3.5 0.00 0.00 0.00 35 1004.1
20260508025133 61 79 1.7 3.5 0.00 0.00 0.00 34 1004.1
20260508024628 62 43 0.9 2.6 0.00 0.00 0.00 35 1004.1
20260508024126 62 26 2.6 4.3 0.00 0.00 0.00 34 1004.0
20260508023622 61 46 1.7 2.6 0.00 0.00 0.00 35 1004.0
20260508023120 62 32 1.7 2.6 0.00 0.00 0.00 34 1003.9
20260508022615 62 87 0.9 0.9 0.00 0.00 0.00 35 1003.9
20260508022113 63 89 0.9 1.7 0.00 0.00 0.00 33 1003.9
20260508021608 66 0 0.0 1.7 0.00 0.00 0.00 32 1003.9
20260508021104 66 0 0.0 1.7 0.00 0.00 0.00 32 1003.9
20260508020602 66 0 0.0 1.7 0.00 0.00 0.00 32 1004.0
20260508020059 66 0 0.0 1.7 0.00 0.00 0.00 32 1003.7
20260508015557 66 0 0.0 1.7 0.00 0.00 0.00 32 1003.9
20260508015054 66 39 0.0 0.9 0.00 0.00 0.00 31 1003.7
20260508014550 66 39 0.0 1.7 0.00 0.00 0.00 31 1003.7
20260508014046 68 359 0.9 1.7 0.00 0.00 0.00 28 1003.6
20260508013542 68 359 0.9 1.7 0.00 0.00 0.00 28 1003.9
20260508013039 68 359 0.9 1.7 0.00 0.00 0.00 28 1003.7
20260508012537 68 359 0.9 1.7 0.00 0.00 0.00 28 1003.9
20260508012034 68 359 0.9 1.7 0.00 0.00 0.00 28 1003.7
20260508011533 68 105 0.9 1.7 0.00 0.00 0.00 28 1003.6
20260508011030 69 184 0.0 6.1 0.00 0.00 0.00 28 1003.9
20260508010526 69 49 1.7 1.7 0.00 0.00 0.00 27 1003.7
20260508010024 71 235 1.7 2.6 0.00 0.00 0.00 27 1004.0
20260508005520 72 167 0.0 0.9 0.00 0.00 0.00 25 1004.0
20260508005017 71 231 1.7 5.2 0.00 0.00 0.00 26 1004.1
20260508004513 71 231 1.7 5.2 0.00 0.00 0.00 26 1004.0
20260508004010 71 231 1.7 5.2 0.00 0.00 0.00 26 1003.7
20260508003506 71 233 1.7 3.5 0.00 0.00 0.00 24 1004.0
20260508003005 70 278 1.7 5.2 0.00 0.00 0.00 27 1004.1
20260508002500 70 218 2.6 3.5 0.00 0.00 0.00 26 1004.0
20260508001956 70 242 1.7 1.7 0.00 0.00 0.00 30 1004.2
20260508001453 69 223 5.2 5.2 0.00 0.00 0.00 26 1004.0
20260508000949 69 249 0.0 2.6 0.00 0.00 0.00 26 1004.2
20260508000444 69 239 3.5 5.2 0.00 0.00 0.00 28 1004.2
20260507235942 71 248 4.3 5.2 0.00 0.00 0.00 27 1004.2
20260507235439 71 248 4.3 5.2 0.00 0.00 0.00 27 1004.2
20260507234937 70 224 1.7 5.2 0.00 0.00 0.00 28 1004.4
20260507234433 71 234 5.2 5.2 0.00 0.00 0.00 28 1004.3
20260507233929 71 234 5.2 5.2 0.00 0.00 0.00 28 1004.8
20260507233426 71 234 5.2 5.2 0.00 0.00 0.00 28 1004.4
20260507232925 71 142 3.5 3.5 0.00 0.00 0.00 26 1004.4
20260507232420 71 307 0.9 4.3 0.00 0.00 0.00 27 1004.6
20260507231918 72 350 0.0 1.7 0.00 0.00 0.00 25 1004.6
20260507231414 72 350 0.0 1.7 0.00 0.00 0.00 25 1004.7
20260507230910 72 350 0.0 1.7 0.00 0.00 0.00 25 1004.8
20260507230403 72 350 0.0 1.7 0.00 0.00 0.00 25 1004.7
20260507225902 72 73 0.0 2.6 0.00 0.00 0.00 25 1004.6
20260507225353 72 235 5.2 5.2 0.00 0.00 0.00 25 1004.8
20260507224849 72 127 0.9 3.5 0.00 0.00 0.00 25 1004.8
20260507224346 73 144 1.7 7.0 0.00 0.00 0.00 26 1004.9
20260507223842 72 235 2.6 5.2 0.00 0.00 0.00 27 1004.8
20260507223339 72 217 3.5 5.2 0.00 0.00 0.00 28 1004.7
20260507222836 71 240 10.4 13.9 0.00 0.00 0.00 27 1004.9
20260507222332 71 257 5.2 10.4 0.00 0.00 0.00 28 1004.8
20260507221829 71 255 2.6 7.8 0.00 0.00 0.00 29 1004.9
20260507221326 74 114 1.7 6.1 0.00 0.00 0.00 26 1004.8
20260507220821 73 240 2.6 3.5 0.00 0.00 0.00 27 1004.9
20260507220320 71 241 4.3 4.3 0.00 0.00 0.00 28 1005.0
20260507215816 72 352 1.7 7.0 0.00 0.00 0.00 28 1004.9
20260507215313 72 257 2.6 4.3 0.00 0.00 0.00 25 1005.2
20260507214811 73 221 0.9 4.3 0.00 0.00 0.00 30 1005.0
20260507214308 73 284 1.7 5.2 0.00 0.00 0.00 29 1005.0